Regional Weather Roundup
Issued by NWS

Home | Current Version | Previous Version | Text Only | Print | Product List | Glossary On
Versions: 1 2 3 4 5 6 7 8 9 10 11 12 13 14 15 16 17 18 19 20 21 22 23 24 25 26 27 28 29 30 31 32 33 34 35 36 37 38 39 40 41 42 43 44 45 46 47 48 49 50
000
ASUS44 KJAN 231210
RWRMS

MISSISSIPPI HOURLY WEATHER ROUNDUP
NATIONAL WEATHER SERVICE JACKSON MS
700 AM CDT THU MAR 23 2017

NOTE: "FAIR: INDICATES FEW OR NO CLOUDS BELOW 12,000 FEET WITH NO
SIGNIFICANT WEATHER AND/OR OBSTRUCTIONS TO VISIBILITY.

MSZ001>002-007>008-010>013-018>021-025>028-034>036-231300-
NORTHWEST MISSISSIPPI

CITY           SKY/WX    TMP DP  RH WIND       PRES   REMARKS
BATESVILLE     FAIR      46  34  62 CALM      30.26S
CLARKSDALE     MOCLDY    50  34  53 E7        30.25R
CLEVELAND      CLOUDY    54  37  53 E6        30.23S
GREENWOOD      CLEAR     54  31  41 E6        30.24R
6HR MIN TEMP:  53; 6HR MAX TEMP:  58;

GREENVILLE     CLOUDY    55  37  50 E7        30.22R
6HR MIN TEMP:  54; 6HR MAX TEMP:  58;

OLIVE BRANCH   MOCLDY   N/A N/A N/A CALM      30.25
OXFORD         FAIR      48  27  43 SE5       30.27S
TUNICA         MOSUNNY   46  34  61 CALM      30.27R
WINONA         FAIR      49  34  56 CALM      30.24S
$$

MSZ003>006-009-014>017-022>024-029>033-037>039-231300-
NORTHEAST MISSISSIPPI

CITY           SKY/WX    TMP DP  RH WIND       PRES   REMARKS
COLUMBUS AFB   CLOUDY    49  38  65 CALM      30.26R
6HR MIN TEMP:  44; 6HR MAX TEMP:  55;

CORINTH        FAIR      43  36  75 CALM      30.27R
GOLDN TRIANGLE CLEAR     50  34  53 CALM      30.22R
STARKVILLE     FAIR      45  37  76 CALM      30.27R
TUPELO         CLOUDY    50  28  42 E3        30.25F
6HR MIN TEMP:  46; 6HR MAX TEMP:  53;

$$

MSZ040-058-231300-
CENTRAL MISSISSIPPI

CITY           SKY/WX    TMP DP  RH WIND       PRES   REMARKS
JACKSON INTL   CLEAR     56  44  64 CALM      30.22R
6HR MIN TEMP:  55; 6HR MAX TEMP:  62;

JACKSON HAWKNS CLEAR     56  44  64 E5        30.22R
6HR MIN TEMP:  56; 6HR MAX TEMP:  63;

MADISON        FAIR      54  43  66 CALM      30.22R
MERIDIAN KEY   CLEAR     51  44  77 N5        30.24R
6HR MIN TEMP:  50; 6HR MAX TEMP:  61;

MERIDIAN NAS   CLEAR     50  38  63 CALM      30.26R
6HR MIN TEMP:  49; 6HR MAX TEMP:  59;

RAYMOND        FAIR      57  48  72 E7        30.21S
VICKSBURG VKS    N/A     61  50  67 SE7G14    30.17S
$$

MSZ059>079-231300-
SOUTH MISSISSIPPI

CITY           SKY/WX    TMP DP  RH WIND       PRES   REMARKS
BROOKHAVEN     FAIR      55  52  88 CALM      30.22R
COLUMBIA       FAIR      55 N/A N/A CALM      30.23S
HATTIESBURG    CLEAR     53  50  89 CALM      30.23R
6HR MIN TEMP:  52; 6HR MAX TEMP:  61;

MCCOMB         CLEAR     59  49  69 CALM      30.20R
6HR MIN TEMP:  59; 6HR MAX TEMP:  68;

NATCHEZ        CLEAR     61  48  63 SE6       30.19R
6HR MIN TEMP:  61; 6HR MAX TEMP:  64;

PINE BELT      CLEAR     55  45  67 NE6       30.24R
6HR MIN TEMP:  55; 6HR MAX TEMP:  64;

$$

MSZ080>082-231300-
COASTAL MISSISSIPPI

CITY           SKY/WX    TMP DP  RH WIND       PRES   REMARKS
BAY ST LOUIS   CLEAR     61  48  63 CALM      30.19
BILOXI         CLEAR     60  52  75 NE6       30.18R
6HR MIN TEMP:  60; 6HR MAX TEMP:  67;

PASCAGOULA     CLEAR     53  50  89 CALM      30.19R
6HR MIN TEMP:  53; 6HR MAX TEMP:  60;

GULFPORT       CLEAR     62  51  67 VRB5      30.18R
6HR MIN TEMP:  62; 6HR MAX TEMP:  70;

$$

LAZ007>009-015>016-023>026-231300-
NORTHEAST LOUISIANA

CITY           SKY/WX    TMP DP  RH WIND       PRES   REMARKS
BASTROP        PTSUNNY   55  53  91 CALM      30.20R
TALLULAH/VBURG CLEAR     59  49  69 SE9       30.20R
6HR MIN TEMP:  58; 6HR MAX TEMP:  63;

VIDALIA        FAIR      60  52  74 CALM      30.19R
$$



USA.gov is the U.S. government's official web portal to all federal, state and local government web resources and services.